• In Czech Republic
  • List of Countries
  • For 7 days
  • Water Temperature
  • Satellite Maps
  • Weather Map
  • Weather Widgets
  • user-avatar
    Login

    Hourly Weather Akkol'

    Today, 19 January, Friday

    Time Temperature Precipitation Wind Pressure Humidity
    00:00 -20°C° 0 mm 1 mps 737 mmHg 92%
    01:00 -21°C° 0 mm 1 mps 737 mmHg 91%
    02:00 -21°C° 0 mm 1 mps 737 mmHg 89%
    03:00 -21°C° 0 mm 1 mps 737 mmHg 88%
    04:00 -21°C° 0 mm 0 mps 737 mmHg 88%
    05:00 -21°C° 0 mm 0 mps 736 mmHg 82%
    06:00 -21°C° 0 mm 0 mps 737 mmHg 81%
    07:00 -21°C° 0 mm 0 mps 737 mmHg 80%
    08:00 -21°C° 0 mm 1 mps 737 mmHg 79%
    09:00 -20°C° 0 mm 1 mps 737 mmHg 80%
    10:00 -18°C° 0 mm 1 mps 737 mmHg 80%
    11:00 -17°C° 0 mm 1 mps 737 mmHg 82%
    12:00 -17°C° 0 mm 1 mps 738 mmHg 82%
    13:00 -16°C° 0 mm 1 mps 738 mmHg 83%
    14:00 -16°C° 0 mm 1 mps 738 mmHg 84%
    15:00 -19°C° 0 mm 2 mps 738 mmHg 84%
    16:00 -20°C° 0 mm 2 mps 738 mmHg 84%
    17:00 -21°C° 0 mm 2 mps 738 mmHg 85%
    18:00 -21°C° 0 mm 2 mps 738 mmHg 86%
    19:00 -23°C° 0 mm 2 mps 739 mmHg 87%
    20:00 -23°C° 0 mm 2 mps 739 mmHg 89%
    21:00 -23°C° 0 mm 2 mps 739 mmHg 90%
    22:00 -23°C° 0 mm 2 mps 739 mmHg 91%
    23:00 -24°C° 0 mm 2 mps 739 mmHg 92%

    Tomorrow, 20 January, Saturday

    Time Temperature Precipitation Wind Pressure Humidity
    00:00 -24°C° 0 mm 2 mps 739 mmHg 92%
    01:00 -25°C° 0 mm 3 mps 739 mmHg 93%
    02:00 -25°C° 0 mm 3 mps 739 mmHg 93%
    03:00 -25°C° 0 mm 3 mps 739 mmHg 93%
    04:00 -25°C° 0 mm 3 mps 740 mmHg 94%
    05:00 -25°C° 0 mm 3 mps 740 mmHg 94%
    06:00 -26°C° 0 mm 3 mps 740 mmHg 95%
    07:00 -26°C° 0 mm 3 mps 740 mmHg 95%
    08:00 -26°C° 0 mm 3 mps 740 mmHg 95%
    09:00 -26°C° 0 mm 4 mps 740 mmHg 95%
    10:00 -25°C° 0 mm 4 mps 741 mmHg 94%
    11:00 -24°C° 0 mm 4 mps 741 mmHg 94%
    12:00 -24°C° 0 mm 4 mps 741 mmHg 94%
    13:00 -23°C° 0 mm 4 mps 741 mmHg 94%
    14:00 -23°C° 0 mm 4 mps 741 mmHg 93%
    15:00 -24°C° 0 mm 4 mps 741 mmHg 94%
    16:00 -25°C° 0 mm 4 mps 741 mmHg 95%
    17:00 -27°C° 0 mm 5 mps 741 mmHg 96%
    18:00 -27°C° 0 mm 5 mps 741 mmHg 96%
    19:00 -27°C° 0 mm 5 mps 741 mmHg 96%
    20:00 -28°C° 0 mm 5 mps 741 mmHg 97%
    21:00 -28°C° 0 mm 5 mps 741 mmHg 96%
    22:00 -28°C° 0 mm 5 mps 741 mmHg 96%
    23:00 -28°C° 0 mm 5 mps 741 mmHg 96%

    Day after tomorrow, 21 January, Sunday

    Time Temperature Precipitation Wind Pressure Humidity
    00:00 -28°C° 0 mm 5 mps 741 mmHg 96%
    01:00 -30°C° 0 mm 6 mps 742 mmHg 96%
    02:00 -30°C° 0 mm 6 mps 742 mmHg 96%
    03:00 -30°C° 0 mm 6 mps 742 mmHg 96%
    04:00 -30°C° 0 mm 6 mps 742 mmHg 96%
    05:00 -31°C° 0 mm 6 mps 742 mmHg 96%
    06:00 -31°C° 0 mm 6 mps 742 mmHg 96%
    07:00 -31°C° 0 mm 6 mps 742 mmHg 96%
    08:00 -33°C° 0 mm 6 mps 742 mmHg 95%
    09:00 -33°C° 0 mm 7 mps 742 mmHg 93%
    10:00 -33°C° 0 mm 7 mps 743 mmHg 90%
    11:00 -33°C° 0 mm 7 mps 743 mmHg 88%
    12:00 -32°C° 0 mm 7 mps 743 mmHg 86%
    13:00 -32°C° 0 mm 7 mps 743 mmHg 85%
    14:00 -32°C° 0 mm 7 mps 743 mmHg 84%
    15:00 -33°C° 0 mm 7 mps 743 mmHg 83%
    16:00 -35°C° 0 mm 7 mps 743 mmHg 83%
    17:00 -36°C° 0 mm 7 mps 744 mmHg 83%
    18:00 -37°C° 0 mm 7 mps 744 mmHg 83%
    19:00 -37°C° 0 mm 7 mps 744 mmHg 84%
    20:00 -38°C° 0 mm 7 mps 744 mmHg 84%
    21:00 -38°C° 0 mm 7 mps 745 mmHg 84%
    22:00 -39°C° 0 mm 7 mps 745 mmHg 84%
    23:00 -39°C° 0 mm 7 mps 745 mmHg 83%

    22 January, Monday

    Time Temperature Precipitation Wind Pressure Humidity
    00:00 -39°C° 0 mm 7 mps 745 mmHg 83%
    01:00 -41°C° 0 mm 7 mps 745 mmHg 82%
    02:00 -40°C° 0 mm 6 mps 745 mmHg 82%
    03:00 -40°C° 0 mm 6 mps 746 mmHg 82%
    04:00 -41°C° 0 mm 6 mps 746 mmHg 82%
    05:00 -41°C° 0 mm 6 mps 746 mmHg 83%
    06:00 -42°C° 0 mm 6 mps 746 mmHg 83%
    07:00 -43°C° 0 mm 6 mps 746 mmHg 83%
    08:00 -43°C° 0 mm 6 mps 746 mmHg 84%
    09:00 -43°C° 0 mm 6 mps 747 mmHg 83%
    10:00 -42°C° 0 mm 6 mps 747 mmHg 83%
    11:00 -41°C° 0 mm 6 mps 747 mmHg 83%
    12:00 -41°C° 0 mm 6 mps 747 mmHg 85%
    13:00 -40°C° 0 mm 6 mps 747 mmHg 86%
    14:00 -40°C° 0 mm 6 mps 747 mmHg 88%
    15:00 -41°C° 0 mm 6 mps 747 mmHg 88%
    16:00 -42°C° 0 mm 6 mps 747 mmHg 89%
    17:00 -42°C° 0 mm 5 mps 747 mmHg 90%
    18:00 -42°C° 0 mm 5 mps 748 mmHg 89%
    19:00 -44°C° 0 mm 5 mps 748 mmHg 89%
    20:00 -44°C° 0 mm 5 mps 748 mmHg 89%
    21:00 -45°C° 0 mm 5 mps 748 mmHg 89%
    22:00 -44°C° 0 mm 4 mps 748 mmHg 89%
    23:00 -44°C° 0 mm 4 mps 748 mmHg 89%

    23 January, Tuesday

    Time Temperature Precipitation Wind Pressure Humidity
    00:00 -44°C° 0 mm 4 mps 748 mmHg 88%
    01:00 -44°C° 0 mm 4 mps 748 mmHg 87%
    02:00 -44°C° 0 mm 4 mps 748 mmHg 86%
    03:00 -44°C° 0 mm 4 mps 749 mmHg 85%
    04:00 -42°C° 0 mm 4 mps 749 mmHg 84%
    05:00 -42°C° 0 mm 4 mps 749 mmHg 84%
    06:00 -42°C° 0 mm 4 mps 749 mmHg 83%
    07:00 -42°C° 0 mm 4 mps 749 mmHg 83%
    08:00 -41°C° 0 mm 4 mps 750 mmHg 82%
    09:00 -40°C° 0 mm 4 mps 750 mmHg 82%
    10:00 -40°C° 0 mm 5 mps 750 mmHg 81%
    11:00 -38°C° 0 mm 5 mps 750 mmHg 81%
    12:00 -38°C° 0 mm 5 mps 750 mmHg 82%
    13:00 -35°C° 0 mm 4 mps 750 mmHg 82%
    14:00 -35°C° 0 mm 4 mps 750 mmHg 83%
    15:00 -37°C° 0 mm 4 mps 750 mmHg 83%
    16:00 -38°C° 0 mm 4 mps 750 mmHg 84%
    17:00 -39°C° 0 mm 4 mps 750 mmHg 85%
    18:00 -39°C° 0 mm 4 mps 750 mmHg 85%
    19:00 -40°C° 0 mm 4 mps 750 mmHg 84%
    20:00 -40°C° 0 mm 4 mps 750 mmHg 84%
    21:00 -40°C° 0 mm 4 mps 750 mmHg 86%
    22:00 -40°C° 0 mm 4 mps 750 mmHg 88%
    23:00 -40°C° 0 mm 4 mps 749 mmHg 90%

    24 January, Wednesday

    Time Temperature Precipitation Wind Pressure Humidity
    00:00 -40°C° 0 mm 3 mps 749 mmHg 92%
    01:00 -40°C° 0 mm 3 mps 749 mmHg 94%
    02:00 -40°C° 0 mm 3 mps 749 mmHg 96%
    03:00 -40°C° 0 mm 3 mps 749 mmHg 97%
    04:00 -39°C° 0 mm 3 mps 749 mmHg 98%
    05:00 -39°C° 0 mm 3 mps 749 mmHg 98%
    06:00 -39°C° 0 mm 3 mps 749 mmHg 98%
    07:00 -39°C° 0 mm 3 mps 749 mmHg 98%
    08:00 -39°C° 0 mm 3 mps 749 mmHg 98%
    09:00 -38°C° 0 mm 3 mps 749 mmHg 98%
    10:00 -38°C° 0 mm 4 mps 750 mmHg 98%
    11:00 -37°C° 0 mm 4 mps 750 mmHg 97%
    12:00 -35°C° 0 mm 4 mps 750 mmHg 97%
    13:00 -34°C° 0 mm 3 mps 749 mmHg 97%
    14:00 -33°C° 0 mm 3 mps 749 mmHg 96%
    15:00 -34°C° 0 mm 3 mps 749 mmHg 97%
    16:00 -35°C° 0 mm 3 mps 749 mmHg 97%
    17:00 -36°C° 0 mm 3 mps 749 mmHg 97%
    18:00 -36°C° 0 mm 3 mps 749 mmHg 97%
    19:00 -38°C° 0 mm 3 mps 749 mmHg 96%
    20:00 -38°C° 0 mm 3 mps 749 mmHg 96%
    21:00 -38°C° 0 mm 3 mps 749 mmHg 95%
    22:00 -38°C° 0 mm 3 mps 749 mmHg 94%
    23:00 -38°C° 0 mm 3 mps 749 mmHg 93%
    Show more